Time,TemperatureF,DewpointF,PressureIn,WindDirection,WindDirectionDegrees,WindSpeedMPH,WindSpeedGustMPH,Humidity,HourlyPrecipIn,Conditions,Clouds,dailyrainin,SolarRadiationWatts/m^2,SoftwareType,DateUTC
2013-05-04 01:55:00,70.5,55.5,29.86,SSW,205,0.0,0.0,59,0.00,,,0.00,0,Wunderground v.1.15,2013-05-03 22:55:00,
2013-05-04 02:35:00,70.3,55.8,29.86,SSW,205,0.0,0.0,60,0.00,,,0.00,0,Wunderground v.1.15,2013-05-03 23:35:00,
2013-05-04 02:55:00,70.6,55.1,29.85,SSW,205,0.0,1.0,58,0.00,,,0.00,0,Wunderground v.1.15,2013-05-03 23:55:00,
2013-05-04 03:05:00,70.9,54.9,29.85,SSW,205,0.0,0.0,57,0.00,,,0.00,0,Wunderground v.1.15,2013-05-04 00:05:00,
2013-05-04 03:15:00,71.0,55.0,29.85,SSW,205,0.0,0.0,57,0.00,,,0.00,0,Wunderground v.1.15,2013-05-04 00:15:00,
2013-05-04 04:50:00,68.6,58.0,29.85,SSW,205,0.0,0.0,69,0.00,,,0.00,0,Wunderground v.1.15,2013-05-04 01:50:00,
2013-05-04 05:00:00,68.6,58.8,29.86,SSW,205,0.0,0.0,71,0.00,,,0.00,0,Wunderground v.1.15,2013-05-04 02:00:00,
2013-05-04 05:10:00,68.6,58.4,29.86,SSW,205,0.0,0.0,70,0.00,,,0.00,0,Wunderground v.1.15,2013-05-04 02:10:00,
2013-05-04 06:15:00,68.1,58.3,29.86,SSW,205,0.0,0.0,71,0.00,,,0.00,0,Wunderground v.1.15,2013-05-04 03:15:00,
2013-05-04 06:25:00,68.1,58.3,29.87,SSW,205,0.0,0.0,71,0.00,,,0.00,0,Wunderground v.1.15,2013-05-04 03:25:00,
2013-05-04 06:35:00,68.1,57.9,29.87,SSW,205,0.0,0.0,70,0.00,,,0.00,5,Wunderground v.1.15,2013-05-04 03:35:00,
2013-05-04 08:50:00,75.2,56.4,29.90,SSW,205,0.0,0.0,52,0.00,,,0.00,332,Wunderground v.1.15,2013-05-04 05:50:00,
2013-05-04 09:00:00,75.2,56.4,29.90,SSW,205,0.0,0.0,52,0.00,,,0.00,366,Wunderground v.1.15,2013-05-04 06:00:00,
2013-05-04 09:25:00,75.8,56.9,29.90,SSW,205,0.0,0.0,52,0.00,,,0.00,439,Wunderground v.1.15,2013-05-04 06:25:00,
2013-05-04 11:35:00,76.3,59.4,29.92,SSW,205,2.0,5.0,56,0.00,,,0.00,765,Wunderground v.1.15,2013-05-04 08:35:00,
2013-05-04 12:25:00,77.8,59.3,29.92,SSW,205,2.0,3.0,53,0.00,,,0.00,835,Wunderground v.1.15,2013-05-04 09:25:00,
2013-05-04 13:45:00,80.9,57.6,29.91,SSW,205,2.0,2.0,45,0.00,,,0.00,872,Wunderground v.1.15,2013-05-04 10:45:00,
2013-05-04 14:35:00,81.9,55.9,29.90,SSW,205,3.0,6.0,41,0.00,,,0.00,842,Wunderground v.1.15,2013-05-04 11:35:00,
2013-05-04 16:40:00,74.5,59.2,29.88,SSW,209,8.0,9.0,59,0.00,,,0.00,601,Wunderground v.1.15,2013-05-04 13:40:00,
2013-05-04 17:30:00,75.6,60.3,29.89,SW,221,4.0,9.0,59,0.00,,,0.00,457,Wunderground v.1.15,2013-05-04 14:30:00,
2013-05-04 17:55:00,75.7,60.8,29.89,SW,219,2.0,2.0,60,0.00,,,0.00,380,Wunderground v.1.15,2013-05-04 14:55:00,
2013-05-04 19:30:00,73.6,61.1,29.89,SW,216,2.0,2.0,65,0.00,,,0.00,81,Wunderground v.1.15,2013-05-04 16:30:00,
2013-05-04 19:55:00,72.5,61.3,29.90,SW,216,1.0,2.0,68,0.00,,,0.00,28,Wunderground v.1.15,2013-05-04 16:55:00,
2013-05-04 20:50:00,71.8,60.2,29.92,SW,216,1.0,2.0,67,0.00,,,0.00,0,Wunderground v.1.15,2013-05-04 17:50:00,
2013-05-04 21:05:00,71.6,60.1,29.92,SW,216,0.0,0.0,67,0.00,,,0.00,0,Wunderground v.1.15,2013-05-04 18:05:00,
2013-05-04 21:55:00,72.0,60.9,29.94,SW,216,0.0,0.0,68,0.00,,,0.00,0,Wunderground v.1.15,2013-05-04 18:55:00,
2013-05-04 23:35:00,70.6,59.9,29.96,SW,216,0.0,0.0,69,0.00,,,0.00,0,Wunderground v.1.15,2013-05-04 20:35:00,